| time (UTC) | temp F | wind direction | speed MPH | gust MPH | rain 1hr in | rain 24hr in | rain mn in | humidity % | barometer mb |
| 20260508073502 | 46 | 8 | 0.0 | 1.0 | 0.00 | 0.28 | 0.00 | 55 | 1007.1 |
| 20260508073102 | 46 | 8 | 0.0 | 1.0 | 0.00 | 0.28 | 0.00 | 54 | 1006.9 |
| 20260508072600 | 46 | 24 | 0.0 | 1.0 | 0.00 | 0.28 | 0.00 | 54 | 1006.8 |
| 20260508072059 | 47 | 24 | 0.0 | 0.0 | 0.00 | 0.28 | 0.00 | 54 | 1006.8 |
| 20260508071558 | 47 | 24 | 0.0 | 0.0 | 0.00 | 0.28 | 0.00 | 53 | 1006.7 |
| 20260508071057 | 47 | 24 | 0.0 | 0.0 | 0.00 | 0.28 | 0.00 | 53 | 1006.8 |
| 20260508070600 | 47 | 24 | 0.0 | 0.0 | 0.00 | 0.28 | 0.00 | 54 | 1006.7 |
| 20260508070055 | 48 | 24 | 0.0 | 0.0 | 0.00 | 0.28 | 0.00 | 52 | 1006.6 |
| 20260508065555 | 48 | 24 | 0.0 | 0.0 | 0.00 | 0.28 | 0.00 | 52 | 1006.6 |
| 20260508065052 | 48 | 23 | 0.0 | 1.0 | 0.00 | 0.28 | 0.00 | 52 | 1006.6 |
| 20260508064552 | 48 | 23 | 0.0 | 1.0 | 0.00 | 0.28 | 0.00 | 51 | 1006.5 |
| 20260508064051 | 48 | 358 | 0.0 | 1.0 | 0.00 | 0.28 | 0.00 | 51 | 1006.5 |
| 20260508063551 | 48 | 351 | 0.0 | 0.0 | 0.00 | 0.28 | 0.00 | 51 | 1006.5 |
| 20260508063101 | 49 | 351 | 0.0 | 1.0 | 0.00 | 0.28 | 0.00 | 51 | 1006.4 |
| 20260508062553 | 49 | 351 | 0.0 | 1.0 | 0.00 | 0.28 | 0.00 | 50 | 1006.3 |
| 20260508062049 | 49 | 351 | 0.0 | 1.0 | 0.00 | 0.28 | 0.00 | 49 | 1006.2 |
| 20260508061549 | 49 | 351 | 0.0 | 2.0 | 0.00 | 0.28 | 0.00 | 49 | 1006.2 |
| 20260508061048 | 50 | 351 | 0.0 | 2.0 | 0.00 | 0.28 | 0.00 | 49 | 1006.2 |
| 20260508060546 | 50 | 6 | 0.0 | 1.0 | 0.00 | 0.28 | 0.00 | 48 | 1006.2 |
| 20260508060047 | 50 | 8 | 0.0 | 1.0 | 0.00 | 0.28 | 0.00 | 48 | 1006.3 |
| 20260508055544 | 50 | 5 | 0.0 | 2.0 | 0.00 | 0.28 | 0.00 | 49 | 1006.3 |
| 20260508055043 | 50 | 5 | 0.0 | 4.0 | 0.00 | 0.28 | 0.00 | 48 | 1006.3 |
| 20260508054543 | 50 | 6 | 1.0 | 4.0 | 0.00 | 0.28 | 0.00 | 47 | 1006.4 |
| 20260508054042 | 51 | 359 | 0.0 | 1.0 | 0.00 | 0.28 | 0.00 | 48 | 1006.3 |
| 20260508053540 | 51 | 359 | 0.0 | 1.0 | 0.00 | 0.28 | 0.00 | 47 | 1006.3 |
| 20260508053042 | 51 | 359 | 0.0 | 2.0 | 0.00 | 0.28 | 0.00 | 47 | 1006.3 |
| 20260508052539 | 51 | 360 | 0.0 | 3.0 | 0.00 | 0.28 | 0.00 | 46 | 1006.3 |
| 20260508052037 | 52 | 9 | 0.0 | 3.0 | 0.00 | 0.28 | 0.00 | 46 | 1006.3 |
| 20260508051540 | 52 | 59 | 0.0 | 3.0 | 0.00 | 0.28 | 0.00 | 46 | 1006.4 |
| 20260508051040 | 52 | 353 | 0.0 | 0.0 | 0.00 | 0.28 | 0.00 | 45 | 1006.4 |
| 20260508050536 | 52 | 1 | 0.0 | 0.0 | 0.00 | 0.28 | 0.00 | 45 | 1006.5 |
| 20260508050037 | 52 | 340 | 0.0 | 4.0 | 0.00 | 0.28 | 0.00 | 45 | 1006.6 |
| 20260508045533 | 53 | 185 | 0.0 | 5.0 | 0.00 | 0.28 | 0.00 | 44 | 1006.5 |
| 20260508045033 | 53 | 12 | 1.0 | 5.0 | 0.00 | 0.28 | 0.00 | 44 | 1006.5 |
| 20260508044534 | 53 | 4 | 0.0 | 4.0 | 0.00 | 0.28 | 0.00 | 45 | 1006.5 |
| 20260508044032 | 53 | 358 | 0.0 | 4.0 | 0.00 | 0.28 | 0.00 | 45 | 1006.6 |
| 20260508043532 | 53 | 221 | 1.0 | 4.0 | 0.00 | 0.28 | 0.00 | 45 | 1006.6 |
| 20260508043049 | 53 | 349 | 1.0 | 4.0 | 0.00 | 0.28 | 0.00 | 45 | 1006.5 |
| 20260508042533 | 53 | 349 | 1.0 | 4.0 | 0.00 | 0.28 | 0.00 | 46 | 1006.5 |
| 20260508042031 | 53 | 1 | 1.0 | 4.0 | 0.00 | 0.28 | 0.00 | 45 | 1006.5 |
| 20260508041530 | 53 | 342 | 0.0 | 6.0 | 0.00 | 0.28 | 0.00 | 45 | 1006.6 |
| 20260508041031 | 53 | 351 | 1.0 | 6.0 | 0.00 | 0.28 | 0.00 | 45 | 1006.6 |
| 20260508040531 | 53 | 9 | 0.0 | 4.0 | 0.00 | 0.28 | 0.00 | 45 | 1006.5 |
| 20260508040035 | 53 | 344 | 0.0 | 5.0 | 0.00 | 0.28 | 0.00 | 46 | 1006.5 |
| 20260508035527 | 53 | 358 | 0.0 | 5.0 | 0.00 | 0.28 | 0.28 | 44 | 1006.5 |
| 20260508035027 | 53 | 356 | 0.0 | 6.0 | 0.00 | 0.28 | 0.28 | 44 | 1006.6 |
| 20260508034527 | 53 | 360 | 0.0 | 6.0 | 0.00 | 0.28 | 0.28 | 44 | 1006.6 |
| 20260508034027 | 53 | 8 | 1.0 | 4.0 | 0.00 | 0.28 | 0.28 | 45 | 1006.5 |
| 20260508033525 | 53 | 22 | 0.0 | 5.0 | 0.00 | 0.28 | 0.28 | 44 | 1006.5 |
| 20260508033026 | 53 | 319 | 0.0 | 5.0 | 0.00 | 0.28 | 0.28 | 44 | 1006.5 |
| 20260508032530 | 53 | 353 | 0.0 | 4.0 | 0.00 | 0.28 | 0.28 | 45 | 1006.5 |
| 20260508032026 | 53 | 349 | 1.0 | 5.0 | 0.00 | 0.28 | 0.28 | 44 | 1006.6 |
| 20260508031524 | 53 | 20 | 0.0 | 5.0 | 0.00 | 0.28 | 0.28 | 44 | 1006.5 |
| 20260508031024 | 53 | 357 | 0.0 | 5.0 | 0.00 | 0.28 | 0.28 | 46 | 1006.5 |
| 20260508030524 | 53 | 187 | 0.0 | 4.0 | 0.00 | 0.28 | 0.28 | 46 | 1006.5 |
| 20260508030026 | 53 | 14 | 0.0 | 4.0 | 0.00 | 0.28 | 0.28 | 45 | 1006.6 |
| 20260508025522 | 53 | 1 | 0.0 | 4.0 | 0.00 | 0.28 | 0.28 | 44 | 1006.7 |
| 20260508025025 | 53 | 350 | 0.0 | 5.0 | 0.00 | 0.28 | 0.28 | 44 | 1006.9 |
| 20260508024522 | 54 | 41 | 0.0 | 5.0 | 0.00 | 0.28 | 0.28 | 44 | 1007.0 |
| 20260508024022 | 54 | 162 | 0.0 | 2.0 | 0.00 | 0.28 | 0.28 | 44 | 1007.0 |
| 20260508023523 | 54 | 169 | 0.0 | 3.0 | 0.00 | 0.28 | 0.28 | 44 | 1007.0 |
| 20260508023022 | 54 | 150 | 0.0 | 3.0 | 0.00 | 0.28 | 0.28 | 44 | 1007.0 |
| 20260508022522 | 54 | 176 | 0.0 | 3.0 | 0.00 | 0.28 | 0.28 | 43 | 1006.9 |
| 20260508022022 | 54 | 17 | 0.0 | 3.0 | 0.00 | 0.28 | 0.28 | 43 | 1006.9 |
| 20260508021521 | 54 | 169 | 0.0 | 6.0 | 0.00 | 0.28 | 0.28 | 44 | 1007.0 |
| 20260508021021 | 54 | 345 | 0.0 | 6.0 | 0.00 | 0.28 | 0.28 | 43 | 1006.9 |
| 20260508020521 | 54 | 357 | 0.0 | 4.0 | 0.00 | 0.28 | 0.28 | 43 | 1007.0 |
| 20260508020029 | 54 | 358 | 0.0 | 4.0 | 0.00 | 0.28 | 0.28 | 43 | 1007.1 |
| 20260508015520 | 54 | 352 | 0.0 | 4.0 | 0.00 | 0.28 | 0.28 | 44 | 1007.1 |
| 20260508015020 | 54 | 5 | 0.0 | 2.0 | 0.00 | 0.28 | 0.28 | 44 | 1007.1 |
| 20260508014522 | 54 | 4 | 0.0 | 2.0 | 0.00 | 0.28 | 0.28 | 44 | 1007.0 |
| 20260508014020 | 55 | 4 | 0.0 | 4.0 | 0.00 | 0.28 | 0.28 | 44 | 1007.0 |
| 20260508013520 | 55 | 8 | 0.0 | 4.0 | 0.00 | 0.28 | 0.28 | 44 | 1006.9 |
| 20260508013019 | 55 | 353 | 0.0 | 2.0 | 0.00 | 0.28 | 0.28 | 44 | 1006.9 |
| 20260508012524 | 55 | 355 | 0.0 | 1.0 | 0.00 | 0.28 | 0.28 | 44 | 1006.9 |
| 20260508012019 | 55 | 358 | 0.0 | 1.0 | 0.00 | 0.28 | 0.28 | 43 | 1006.7 |
| 20260508011520 | 55 | 358 | 0.0 | 1.0 | 0.00 | 0.28 | 0.28 | 43 | 1006.7 |
| 20260508011019 | 56 | 356 | 0.0 | 2.0 | 0.00 | 0.28 | 0.28 | 43 | 1006.7 |
| 20260508010520 | 56 | 354 | 0.0 | 2.0 | 0.00 | 0.28 | 0.28 | 42 | 1006.6 |
| 20260508010020 | 56 | 351 | 0.0 | 2.0 | 0.00 | 0.28 | 0.28 | 41 | 1006.5 |
| 20260508005518 | 56 | 358 | 0.0 | 2.0 | 0.00 | 0.28 | 0.28 | 41 | 1006.4 |
| 20260508005017 | 56 | 356 | 0.0 | 3.0 | 0.00 | 0.28 | 0.28 | 41 | 1006.3 |
| 20260508004518 | 57 | 7 | 0.0 | 3.0 | 0.00 | 0.28 | 0.28 | 41 | 1006.4 |
| 20260508004017 | 57 | 1 | 0.0 | 5.0 | 0.00 | 0.28 | 0.28 | 40 | 1006.2 |
| 20260508003520 | 57 | 154 | 2.0 | 5.0 | 0.00 | 0.28 | 0.28 | 39 | 1006.1 |
| 20260508003018 | 57 | 351 | 0.0 | 2.0 | 0.00 | 0.28 | 0.28 | 41 | 1006.0 |
| 20260508002519 | 57 | 358 | 0.0 | 3.0 | 0.00 | 0.28 | 0.28 | 40 | 1005.9 |
| 20260508002018 | 57 | 8 | 0.0 | 3.0 | 0.00 | 0.28 | 0.28 | 39 | 1005.6 |
| 20260508001536 | 57 | 355 | 1.0 | 3.0 | 0.00 | 0.28 | 0.28 | 39 | 1005.4 |
| 20260508001017 | 58 | 150 | 0.0 | 2.0 | 0.00 | 0.28 | 0.28 | 39 | 1005.5 |
| 20260508000518 | 58 | 356 | 0.0 | 4.0 | 0.00 | 0.28 | 0.28 | 39 | 1005.3 |
| 20260508000017 | 58 | 345 | 0.0 | 7.0 | 0.00 | 0.28 | 0.28 | 39 | 1005.4 |
| 20260507235517 | 59 | 360 | 0.0 | 7.0 | 0.00 | 0.28 | 0.28 | 39 | 1005.4 |
| 20260507235016 | 59 | 17 | 2.0 | 5.0 | 0.00 | 0.28 | 0.28 | 38 | 1005.2 |
| 20260507234518 | 59 | 337 | 0.0 | 7.0 | 0.00 | 0.28 | 0.28 | 38 | 1005.2 |
| 20260507234052 | 59 | 12 | 1.0 | 7.0 | 0.00 | 0.28 | 0.28 | 37 | 1005.1 |
| 20260507233516 | 59 | 8 | 1.0 | 6.0 | 0.00 | 0.28 | 0.28 | 37 | 1005.1 |
| 20260507233018 | 60 | 137 | 1.0 | 8.0 | 0.00 | 0.28 | 0.28 | 37 | 1005.1 |
| 20260507232517 | 60 | 358 | 0.0 | 8.0 | 0.00 | 0.28 | 0.28 | 37 | 1005.1 |
| 20260507232015 | 60 | 11 | 1.0 | 5.0 | 0.00 | 0.28 | 0.28 | 37 | 1004.9 |
| 20260507231515 | 61 | 338 | 1.0 | 9.0 | 0.00 | 0.28 | 0.28 | 37 | 1004.9 |
| 20260507231015 | 61 | 337 | 2.0 | 9.0 | 0.00 | 0.28 | 0.28 | 36 | 1004.8 |
| 20260507230515 | 61 | 6 | 2.0 | 8.0 | 0.00 | 0.28 | 0.28 | 37 | 1004.8 |
| 20260507230015 | 61 | 357 | 1.0 | 7.0 | 0.00 | 0.31 | 0.28 | 36 | 1004.7 |
| 20260507225517 | 62 | 337 | 1.0 | 7.0 | 0.00 | 0.31 | 0.28 | 36 | 1004.7 |
| 20260507225015 | 62 | 355 | 1.0 | 10.0 | 0.00 | 0.31 | 0.28 | 36 | 1004.6 |
| 20260507224513 | 62 | 141 | 2.0 | 10.0 | 0.00 | 0.31 | 0.28 | 36 | 1004.5 |
| 20260507224014 | 62 | 349 | 1.0 | 11.0 | 0.00 | 0.31 | 0.28 | 36 | 1004.5 |
| 20260507223517 | 62 | 353 | 1.0 | 11.0 | 0.00 | 0.31 | 0.28 | 36 | 1004.5 |
| 20260507223014 | 63 | 12 | 2.0 | 9.0 | 0.00 | 0.31 | 0.28 | 35 | 1004.3 |
| 20260507222514 | 63 | 26 | 3.0 | 9.0 | 0.00 | 0.31 | 0.28 | 35 | 1004.3 |
| 20260507222013 | 63 | 358 | 0.0 | 7.0 | 0.00 | 0.31 | 0.28 | 36 | 1004.2 |
| 20260507221514 | 63 | 2 | 2.0 | 9.0 | 0.00 | 0.31 | 0.28 | 35 | 1004.1 |
| 20260507221014 | 64 | 360 | 1.0 | 9.0 | 0.00 | 0.31 | 0.28 | 35 | 1004.0 |
| 20260507220513 | 64 | 15 | 2.0 | 7.0 | 0.00 | 0.31 | 0.28 | 37 | 1004.1 |
| 20260507220021 | 64 | 318 | 1.0 | 8.0 | 0.00 | 0.33 | 0.28 | 36 | 1004.1 |
| 20260507215511 | 64 | 343 | 2.0 | 8.0 | 0.00 | 0.33 | 0.28 | 36 | 1004.0 |
| 20260507215013 | 64 | 353 | 2.0 | 8.0 | 0.00 | 0.33 | 0.28 | 34 | 1004.1 |
| 20260507214512 | 64 | 3 | 2.0 | 8.0 | 0.00 | 0.33 | 0.28 | 35 | 1004.0 |
| 20260507214012 | 64 | 344 | 1.0 | 5.0 | 0.00 | 0.33 | 0.28 | 37 | 1003.8 |
| 20260507213513 | 64 | 1 | 0.0 | 6.0 | 0.00 | 0.33 | 0.28 | 34 | 1003.9 |
| 20260507213013 | 64 | 3 | 1.0 | 8.0 | 0.00 | 0.33 | 0.28 | 35 | 1003.8 |
| 20260507212511 | 65 | 22 | 3.0 | 8.0 | 0.00 | 0.33 | 0.28 | 34 | 1003.8 |
| 20260507212012 | 65 | 359 | 2.0 | 8.0 | 0.00 | 0.33 | 0.28 | 34 | 1003.8 |
| 20260507211511 | 65 | 339 | 3.0 | 8.0 | 0.00 | 0.33 | 0.28 | 33 | 1003.7 |
| 20260507211010 | 65 | 346 | 2.0 | 6.0 | 0.00 | 0.33 | 0.28 | 33 | 1003.6 |
| 20260507210510 | 65 | 9 | 2.0 | 8.0 | 0.00 | 0.33 | 0.28 | 31 | 1003.6 |
| 20260507210010 | 65 | 351 | 2.0 | 8.0 | 0.00 | 0.34 | 0.28 | 32 | 1003.6 |
| 20260507205509 | 66 | 353 | 0.0 | 6.0 | 0.00 | 0.34 | 0.28 | 33 | 1003.6 |
| 20260507205012 | 66 | 8 | 1.0 | 6.0 | 0.00 | 0.34 | 0.28 | 31 | 1003.6 |
| 20260507204507 | 66 | 3 | 2.0 | 9.0 | 0.00 | 0.34 | 0.28 | 30 | 1003.6 |
| 20260507204010 | 67 | 346 | 3.0 | 10.0 | 0.00 | 0.34 | 0.28 | 31 | 1003.6 |
| 20260507203507 | 67 | 3 | 3.0 | 10.0 | 0.00 | 0.34 | 0.28 | 31 | 1003.6 |
| 20260507203009 | 67 | 8 | 2.0 | 9.0 | 0.00 | 0.34 | 0.28 | 30 | 1003.6 |
| 20260507202506 | 68 | 211 | 2.0 | 9.0 | 0.00 | 0.34 | 0.28 | 32 | 1003.6 |
| 20260507202006 | 68 | 5 | 3.0 | 8.0 | 0.00 | 0.34 | 0.28 | 32 | 1003.5 |
| 20260507201506 | 67 | 355 | 3.0 | 7.0 | 0.00 | 0.34 | 0.28 | 31 | 1003.5 |
| 20260507201005 | 67 | 312 | 3.0 | 11.0 | 0.00 | 0.34 | 0.28 | 31 | 1003.6 |
| 20260507200505 | 68 | 337 | 4.0 | 11.0 | 0.00 | 0.34 | 0.28 | 30 | 1003.7 |
| 20260507200004 | 68 | 8 | 4.0 | 11.0 | 0.00 | 0.36 | 0.28 | 30 | 1003.5 |
| 20260507195502 | 68 | 5 | 4.0 | 11.0 | 0.00 | 0.36 | 0.28 | 30 | 1003.7 |
| 20260507195003 | 68 | 8 | 1.0 | 11.0 | 0.00 | 0.36 | 0.28 | 29 | 1003.7 |
| 20260507194600 | 69 | 30 | 2.0 | 10.0 | 0.00 | 0.36 | 0.28 | 29 | 1003.6 |
| 20260507194058 | 69 | 194 | 3.0 | 6.0 | 0.00 | 0.36 | 0.28 | 32 | 1003.7 |
| 20260507193557 | 69 | 323 | 0.0 | 7.0 | 0.00 | 0.36 | 0.28 | 33 | 1003.7 |
| 20260507193058 | 69 | 360 | 1.0 | 8.0 | 0.00 | 0.36 | 0.28 | 30 | 1003.9 |
| 20260507192554 | 68 | 358 | 1.0 | 8.0 | 0.00 | 0.36 | 0.28 | 33 | 1004.0 |
| 20260507192056 | 68 | 5 | 1.0 | 10.0 | 0.00 | 0.36 | 0.28 | 30 | 1004.1 |
| 20260507191556 | 68 | 360 | 2.0 | 10.0 | 0.00 | 0.36 | 0.28 | 32 | 1004.1 |
| 20260507191050 | 67 | 36 | 1.0 | 8.0 | 0.00 | 0.36 | 0.28 | 30 | 1004.2 |
| 20260507190550 | 68 | 10 | 3.0 | 8.0 | 0.00 | 0.36 | 0.28 | 30 | 1004.3 |
| 20260507190054 | 68 | 3 | 1.0 | 4.0 | 0.00 | 0.36 | 0.28 | 33 | 1004.2 |
| 20260507185548 | 68 | 2 | 1.0 | 7.0 | 0.00 | 0.36 | 0.28 | 36 | 1004.3 |
| 20260507185048 | 67 | 180 | 1.0 | 7.0 | 0.00 | 0.36 | 0.28 | 33 | 1004.3 |
| 20260507184551 | 67 | 215 | 2.0 | 7.0 | 0.00 | 0.36 | 0.28 | 35 | 1004.4 |
| 20260507184048 | 68 | 11 | 3.0 | 8.0 | 0.00 | 0.36 | 0.28 | 32 | 1004.5 |
| 20260507183548 | 68 | 11 | 1.0 | 8.0 | 0.00 | 0.36 | 0.28 | 36 | 1004.6 |
| 20260507183047 | 68 | 3 | 0.0 | 7.0 | 0.00 | 0.36 | 0.28 | 35 | 1004.5 |
| 20260507182546 | 67 | 4 | 1.0 | 10.0 | 0.00 | 0.36 | 0.28 | 34 | 1004.7 |
| 20260507182044 | 67 | 25 | 5.0 | 10.0 | 0.00 | 0.36 | 0.28 | 32 | 1004.7 |
| 20260507181547 | 67 | 5 | 1.0 | 7.0 | 0.00 | 0.36 | 0.28 | 34 | 1004.9 |
| 20260507181044 | 66 | 338 | 1.0 | 6.0 | 0.00 | 0.36 | 0.28 | 35 | 1004.8 |
| 20260507180544 | 66 | 2 | 2.0 | 7.0 | 0.00 | 0.36 | 0.28 | 35 | 1005.0 |
| 20260507180044 | 66 | 360 | 2.0 | 7.0 | 0.00 | 0.36 | 0.28 | 36 | 1005.1 |
| 20260507175542 | 67 | 14 | 1.0 | 8.0 | 0.00 | 0.36 | 0.28 | 40 | 1005.0 |
| 20260507175042 | 66 | 208 | 2.0 | 8.0 | 0.00 | 0.36 | 0.28 | 42 | 1005.0 |
| 20260507174546 | 66 | 9 | 2.0 | 6.0 | 0.00 | 0.36 | 0.28 | 44 | 1005.1 |
| 20260507174040 | 65 | 13 | 1.0 | 6.0 | 0.00 | 0.36 | 0.28 | 40 | 1005.0 |
| 20260507173542 | 65 | 22 | 2.0 | 6.0 | 0.00 | 0.36 | 0.28 | 38 | 1005.1 |
| 20260507173040 | 65 | 360 | 1.0 | 7.0 | 0.00 | 0.36 | 0.28 | 38 | 1005.1 |
| 20260507172539 | 65 | 347 | 3.0 | 7.0 | 0.00 | 0.36 | 0.28 | 38 | 1005.1 |
| 20260507172037 | 65 | 164 | 0.0 | 9.0 | 0.00 | 0.36 | 0.28 | 45 | 1005.1 |
| 20260507171538 | 64 | 246 | 1.0 | 9.0 | 0.00 | 0.36 | 0.28 | 41 | 1005.3 |
| 20260507171037 | 64 | 346 | 2.0 | 8.0 | 0.00 | 0.36 | 0.28 | 41 | 1005.3 |
| 20260507170538 | 64 | 341 | 1.0 | 8.0 | 0.00 | 0.36 | 0.28 | 41 | 1005.3 |
| 20260507170043 | 64 | 19 | 2.0 | 8.0 | 0.00 | 0.36 | 0.28 | 39 | 1005.5 |
| 20260507165534 | 65 | 8 | 0.0 | 6.0 | 0.00 | 0.36 | 0.28 | 42 | 1005.5 |
| 20260507165034 | 64 | 199 | 2.0 | 10.0 | 0.00 | 0.36 | 0.28 | 42 | 1005.6 |
| 20260507164534 | 64 | 5 | 1.0 | 10.0 | 0.00 | 0.36 | 0.28 | 46 | 1005.8 |
| 20260507164031 | 63 | 327 | 2.0 | 8.0 | 0.00 | 0.36 | 0.28 | 44 | 1005.7 |
| 20260507163531 | 63 | 338 | 1.0 | 8.0 | 0.00 | 0.36 | 0.28 | 45 | 1005.8 |
| 20260507163030 | 63 | 3 | 2.0 | 8.0 | 0.00 | 0.36 | 0.28 | 46 | 1005.8 |
| 20260507162529 | 63 | 197 | 0.0 | 6.0 | 0.00 | 0.36 | 0.28 | 47 | 1005.8 |
| 20260507162028 | 62 | 293 | 1.0 | 6.0 | 0.00 | 0.36 | 0.28 | 47 | 1005.9 |
| 20260507161528 | 62 | 13 | 0.0 | 6.0 | 0.00 | 0.36 | 0.28 | 47 | 1005.8 |
| 20260507161028 | 62 | 358 | 2.0 | 9.0 | 0.00 | 0.36 | 0.28 | 50 | 1006.0 |
| 20260507160529 | 62 | 191 | 2.0 | 9.0 | 0.00 | 0.36 | 0.28 | 52 | 1006.0 |
| 20260507160026 | 62 | 325 | 2.0 | 7.0 | 0.00 | 0.36 | 0.28 | 51 | 1006.0 |
| 20260507155506 | 61 | 343 | 1.0 | 8.0 | 0.00 | 0.36 | 0.28 | 52 | 1006.1 |
| 20260507155004 | 61 | 354 | 2.0 | 8.0 | 0.00 | 0.36 | 0.28 | 50 | 1006.2 |
| 20260507154504 | 61 | 353 | 2.0 | 5.0 | 0.00 | 0.36 | 0.28 | 57 | 1006.1 |
| 20260507154002 | 61 | 15 | 1.0 | 7.0 | 0.00 | 0.36 | 0.28 | 59 | 1006.2 |
| 20260507153502 | 61 | 7 | 3.0 | 7.0 | 0.00 | 0.36 | 0.28 | 61 | 1006.3 |
| 20260507153006 | 61 | 353 | 2.0 | 7.0 | 0.00 | 0.36 | 0.28 | 60 | 1006.1 |
| 20260507152504 | 60 | 23 | 0.0 | 6.0 | 0.00 | 0.36 | 0.28 | 60 | 1006.2 |
| 20260507152003 | 60 | 3 | 2.0 | 7.0 | 0.00 | 0.36 | 0.28 | 61 | 1006.3 |
| 20260507151600 | 60 | 360 | 3.0 | 7.0 | 0.00 | 0.36 | 0.28 | 61 | 1006.3 |
| 20260507151059 | 60 | 86 | 3.0 | 9.0 | 0.00 | 0.36 | 0.28 | 63 | 1006.4 |
| 20260507150558 | 60 | 21 | 3.0 | 9.0 | 0.00 | 0.36 | 0.28 | 63 | 1006.4 |
| 20260507150056 | 59 | 3 | 2.0 | 7.0 | 0.00 | 0.36 | 0.28 | 63 | 1006.4 |
| 20260507145556 | 59 | 22 | 2.0 | 7.0 | 0.00 | 0.36 | 0.28 | 67 | 1006.5 |
| 20260507145054 | 58 | 209 | 1.0 | 7.0 | 0.00 | 0.36 | 0.28 | 67 | 1006.5 |
| 20260507144552 | 58 | 351 | 0.0 | 8.0 | 0.00 | 0.36 | 0.28 | 70 | 1006.5 |
| 20260507144055 | 58 | 360 | 2.0 | 8.0 | 0.00 | 0.36 | 0.28 | 69 | 1006.5 |
| 20260507143552 | 58 | 7 | 2.0 | 7.0 | 0.00 | 0.36 | 0.28 | 72 | 1006.4 |
| 20260507143053 | 57 | 344 | 1.0 | 7.0 | 0.00 | 0.36 | 0.28 | 72 | 1006.4 |
| 20260507142552 | 57 | 343 | 0.0 | 7.0 | 0.00 | 0.36 | 0.28 | 74 | 1006.5 |
| 20260507142050 | 56 | 9 | 1.0 | 6.0 | 0.00 | 0.36 | 0.28 | 76 | 1006.7 |
| 20260507141551 | 56 | 214 | 0.0 | 5.0 | 0.00 | 0.36 | 0.28 | 77 | 1006.7 |
| 20260507141049 | 56 | 345 | 0.0 | 5.0 | 0.00 | 0.36 | 0.28 | 78 | 1006.6 |
| 20260507140551 | 56 | 10 | 1.0 | 8.0 | 0.00 | 0.36 | 0.28 | 76 | 1006.6 |
| 20260507140051 | 55 | 4 | 2.0 | 8.0 | 0.00 | 0.36 | 0.28 | 76 | 1006.8 |
| 20260507135549 | 55 | 360 | 0.0 | 5.0 | 0.00 | 0.36 | 0.28 | 80 | 1006.9 |
| 20260507135046 | 55 | 241 | 1.0 | 5.0 | 0.00 | 0.36 | 0.28 | 82 | 1006.8 |
| 20260507134550 | 55 | 339 | 0.0 | 5.0 | 0.00 | 0.36 | 0.28 | 84 | 1006.9 |
| 20260507134045 | 54 | 360 | 1.0 | 5.0 | 0.00 | 0.36 | 0.28 | 82 | 1006.8 |
| 20260507133545 | 54 | 26 | 1.0 | 4.0 | 0.00 | 0.36 | 0.28 | 84 | 1006.9 |
| 20260507133045 | 53 | 4 | 0.0 | 3.0 | 0.00 | 0.36 | 0.28 | 86 | 1006.9 |
| 20260507132544 | 53 | 351 | 0.0 | 3.0 | 0.00 | 0.36 | 0.28 | 85 | 1006.8 |
| 20260507132048 | 53 | 357 | 0.0 | 3.0 | 0.00 | 0.36 | 0.28 | 86 | 1006.8 |
| 20260507131644 | 53 | 334 | 1.0 | 3.0 | 0.00 | 0.36 | 0.28 | 85 | 1006.9 |
| 20260507131044 | 53 | 147 | 0.0 | 2.0 | 0.00 | 0.36 | 0.28 | 87 | 1007.0 |
| 20260507130544 | 53 | 4 | 0.0 | 2.0 | 0.00 | 0.36 | 0.28 | 88 | 1007.1 |
| 20260507130055 | 53 | 197 | 0.0 | 3.0 | 0.00 | 0.36 | 0.28 | 89 | 1007.1 |
| 20260507125542 | 53 | 358 | 0.0 | 3.0 | 0.00 | 0.36 | 0.28 | 89 | 1006.6 |
| 20260507125041 | 53 | 6 | 1.0 | 3.0 | 0.00 | 0.36 | 0.28 | 88 | 1006.6 |
| 20260507124548 | 53 | 11 | 0.0 | 1.0 | 0.00 | 0.36 | 0.28 | 89 | 1006.8 |
| 20260507124041 | 52 | 360 | 0.0 | 3.0 | 0.00 | 0.36 | 0.28 | 90 | 1006.8 |
| 20260507123541 | 52 | 360 | 0.0 | 3.0 | 0.00 | 0.36 | 0.28 | 91 | 1006.7 |
| 20260507123042 | 52 | 9 | 0.0 | 0.0 | 0.00 | 0.36 | 0.28 | 91 | 1006.7 |
| 20260507122542 | 52 | 9 | 0.0 | 2.0 | 0.00 | 0.36 | 0.28 | 92 | 1006.8 |
| 20260507122041 | 52 | 10 | 0.0 | 2.0 | 0.00 | 0.36 | 0.28 | 91 | 1006.9 |
| 20260507121541 | 52 | 8 | 0.0 | 0.0 | 0.01 | 0.36 | 0.28 | 92 | 1006.8 |
| 20260507121041 | 51 | 8 | 0.0 | 0.0 | 0.01 | 0.36 | 0.28 | 92 | 1006.9 |
| 20260507120541 | 51 | 8 | 0.0 | 0.0 | 0.02 | 0.36 | 0.28 | 92 | 1007.0 |
| 20260507120043 | 51 | 8 | 0.0 | 0.0 | 0.02 | 0.36 | 0.28 | 92 | 1007.0 |
| 20260507115539 | 51 | 8 | 0.0 | 0.0 | 0.03 | 0.36 | 0.28 | 92 | 1007.1 |
| 20260507115040 | 51 | 4 | 0.0 | 1.0 | 0.03 | 0.36 | 0.28 | 92 | 1007.1 |
| 20260507114541 | 51 | 4 | 0.0 | 1.0 | 0.03 | 0.36 | 0.28 | 92 | 1006.8 |
| 20260507114038 | 51 | 4 | 0.0 | 1.0 | 0.03 | 0.36 | 0.28 | 92 | 1006.6 |
| 20260507113538 | 51 | 4 | 0.0 | 0.0 | 0.03 | 0.36 | 0.28 | 92 | 1006.8 |
| 20260507113038 | 51 | 143 | 0.0 | 0.0 | 0.03 | 0.36 | 0.28 | 92 | 1006.5 |
| 20260507112540 | 51 | 152 | 0.0 | 1.0 | 0.03 | 0.36 | 0.28 | 92 | 1006.5 |
| 20260507112037 | 51 | 152 | 0.0 | 1.0 | 0.03 | 0.36 | 0.28 | 92 | 1006.4 |
| 20260507111537 | 51 | 152 | 0.0 | 2.0 | 0.03 | 0.35 | 0.27 | 92 | 1006.6 |
| 20260507111039 | 51 | 162 | 0.0 | 2.0 | 0.03 | 0.35 | 0.27 | 92 | 1006.6 |
| 20260507110539 | 51 | 169 | 0.0 | 1.0 | 0.02 | 0.34 | 0.26 | 92 | 1006.7 |
| 20260507110040 | 51 | 175 | 0.0 | 3.0 | 0.02 | 0.34 | 0.26 | 91 | 1006.9 |
| 20260507105535 | 51 | 340 | 0.0 | 3.0 | 0.01 | 0.33 | 0.25 | 91 | 1006.8 |
| 20260507105039 | 51 | 5 | 0.0 | 3.0 | 0.02 | 0.33 | 0.25 | 91 | 1006.4 |
| 20260507104534 | 51 | 355 | 0.0 | 3.0 | 0.03 | 0.33 | 0.25 | 91 | 1006.7 |
| 20260507104034 | 51 | 5 | 1.0 | 3.0 | 0.03 | 0.33 | 0.25 | 91 | 1006.5 |
| 20260507103535 | 51 | 9 | 1.0 | 6.0 | 0.03 | 0.33 | 0.25 | 91 | 1006.1 |
| 20260507103034 | 51 | 8 | 0.0 | 7.0 | 0.03 | 0.33 | 0.25 | 92 | 1006.2 |
| 20260507102532 | 51 | 5 | 3.0 | 7.0 | 0.04 | 0.33 | 0.25 | 92 | 1006.1 |
| 20260507102032 | 51 | 2 | 1.0 | 5.0 | 0.04 | 0.33 | 0.25 | 93 | 1005.8 |
| 20260507101532 | 51 | 5 | 0.0 | 5.0 | 0.03 | 0.32 | 0.24 | 93 | 1005.7 |
| 20260507101034 | 51 | 5 | 0.0 | 0.0 | 0.03 | 0.32 | 0.24 | 93 | 1005.7 |
| 20260507100531 | 51 | 12 | 0.0 | 0.0 | 0.03 | 0.32 | 0.24 | 93 | 1006.0 |
| 20260507100037 | 51 | 12 | 0.0 | 0.0 | 0.03 | 0.32 | 0.24 | 93 | 1006.1 |
| 20260507095530 | 51 | 357 | 0.0 | 0.0 | 0.03 | 0.32 | 0.24 | 93 | 1006.0 |
| 20260507095030 | 51 | 357 | 0.0 | 0.0 | 0.03 | 0.31 | 0.23 | 93 | 1006.0 |
| 20260507094529 | 51 | 356 | 0.0 | 0.0 | 0.02 | 0.30 | 0.22 | 93 | 1006.2 |
| 20260507094027 | 51 | 353 | 0.0 | 0.0 | 0.03 | 0.30 | 0.22 | 93 | 1006.1 |
| 20260507093527 | 51 | 353 | 0.0 | 0.0 | 0.03 | 0.30 | 0.22 | 93 | 1005.9 |
| 20260507093027 | 51 | 350 | 0.0 | 1.0 | 0.02 | 0.28 | 0.21 | 92 | 1005.8 |
| 20260507092526 | 51 | 342 | 0.0 | 1.0 | 0.02 | 0.28 | 0.21 | 92 | 1005.8 |
| 20260507092028 | 51 | 17 | 0.0 | 3.0 | 0.03 | 0.28 | 0.21 | 92 | 1005.9 |
| 20260507091525 | 51 | 9 | 0.0 | 3.0 | 0.03 | 0.28 | 0.21 | 92 | 1005.9 |
| 20260507091025 | 51 | 358 | 0.0 | 3.0 | 0.03 | 0.28 | 0.21 | 92 | 1005.7 |
| 20260507090524 | 51 | 26 | 0.0 | 3.0 | 0.04 | 0.28 | 0.21 | 92 | 1005.4 |
| 20260507090024 | 52 | 356 | 1.0 | 3.0 | 0.04 | 0.28 | 0.21 | 91 | 1005.3 |
| 20260507085523 | 52 | 359 | 1.0 | 3.0 | 0.04 | 0.28 | 0.21 | 91 | 1005.3 |
| 20260507085023 | 52 | 3 | 0.0 | 3.0 | 0.04 | 0.28 | 0.20 | 91 | 1005.8 |
| 20260507084522 | 52 | 5 | 0.0 | 3.0 | 0.06 | 0.28 | 0.20 | 92 | 1006.0 |
| 20260507084021 | 52 | 19 | 0.0 | 3.0 | 0.08 | 0.27 | 0.19 | 91 | 1005.7 |
| 20260507083521 | 52 | 357 | 0.0 | 3.0 | 0.13 | 0.27 | 0.19 | 91 | 1005.5 |
| 20260507083020 | 52 | 1 | 0.0 | 4.0 | 0.16 | 0.27 | 0.19 | 91 | 1005.4 |
| 20260507082519 | 52 | 17 | 0.0 | 5.0 | 0.17 | 0.27 | 0.19 | 91 | 1005.5 |
| 20260507082018 | 53 | 5 | 0.0 | 9.0 | 0.18 | 0.26 | 0.18 | 90 | 1005.4 |
| 20260507081534 | 53 | 337 | 4.0 | 9.0 | 0.18 | 0.26 | 0.18 | 90 | 1005.1 |
| 20260507081016 | 53 | 1 | 2.0 | 8.0 | 0.18 | 0.26 | 0.18 | 90 | 1005.3 |
| 20260507080518 | 54 | 346 | 3.0 | 8.0 | 0.17 | 0.25 | 0.17 | 91 | 1005.4 |
| 20260507080013 | 54 | 353 | 1.0 | 6.0 | 0.17 | 0.25 | 0.17 | 91 | 1005.3 |
| 20260507075516 | 55 | 358 | 1.0 | 5.0 | 0.16 | 0.24 | 0.16 | 91 | 1005.4 |
| 20260507075011 | 55 | 358 | 2.0 | 4.0 | 0.15 | 0.23 | 0.15 | 91 | 1005.3 |
| 20260507074522 | 55 | 11 | 0.0 | 6.0 | 0.13 | 0.21 | 0.13 | 91 | 1005.5 |
| 20260507074008 | 56 | 360 | 0.0 | 6.0 | 0.10 | 0.18 | 0.10 | 91 | 1005.4 |